K4MET Weather Reports


Display with metric or nautical units.
time (UTC)temp
F
wind
direction
speed
MPH
gust
MPH
rain 1hr
in
rain 24hr
in
rain mn
in
humidity
%
barometer
mb
20260506042515 70 205 1.0 2.0 0.00 0.00 0.00 55 1012.0
20260506042015 70 205 0.0 2.0 0.00 0.00 0.00 55 1012.0
20260506041515 70 205 1.0 2.0 0.00 0.00 0.00 55 1012.0
20260506041015 70 205 1.0 2.0 0.00 0.00 0.00 55 1011.7
20260506040014 70 205 1.0 3.0 0.00 0.00 0.00 55 1011.7
20260506035514 70 205 0.0 1.0 0.00 0.00 0.00 54 1011.6
20260506035014 70 205 0.0 2.0 0.00 0.00 0.00 54 1011.6
20260506034013 70 205 0.0 2.0 0.00 0.00 0.00 53 1011.8
20260506033513 70 205 0.0 2.0 0.00 0.00 0.00 52 1011.8
20260506033013 70 205 1.0 2.0 0.00 0.00 0.00 52 1011.8
20260506032513 70 205 0.0 2.0 0.00 0.00 0.00 52 1011.9
20260506031513 70 205 1.0 3.0 0.00 0.00 0.00 51 1011.8
20260506031013 70 205 1.0 3.0 0.00 0.00 0.00 50 1011.8
20260506030513 70 205 1.0 2.0 0.00 0.00 0.00 50 1011.8
20260506030013 70 205 1.0 2.0 0.00 0.00 0.00 49 1011.8
20260506025512 70 205 1.0 2.0 0.00 0.00 0.00 49 1011.9
20260506025012 70 205 1.0 1.0 0.00 0.00 0.00 50 1011.9
20260506024512 70 205 0.0 1.0 0.00 0.00 0.00 50 1011.9
20260506023512 70 205 0.0 2.0 0.00 0.00 0.00 51 1011.9
20260506023012 71 205 0.0 2.0 0.00 0.00 0.00 48 1011.9
20260506022511 71 205 0.0 1.0 0.00 0.00 0.00 49 1011.7
20260506022011 71 205 0.0 1.0 0.00 0.00 0.00 49 1011.7
20260506021511 71 205 0.0 1.0 0.00 0.00 0.00 48 1011.7
20260506021011 71 205 0.0 1.0 0.00 0.00 0.00 48 1011.5
20260506020511 71 205 0.0 1.0 0.00 0.00 0.00 48 1011.5
20260506020011 71 205 0.0 1.0 0.00 0.00 0.00 48 1011.5
20260506015511 71 205 1.0 2.0 0.00 0.00 0.00 47 1011.2
20260506015010 71 205 0.0 2.0 0.00 0.00 0.00 46 1011.2
20260506014510 71 205 1.0 2.0 0.00 0.00 0.00 46 1011.2
20260506014010 72 205 1.0 2.0 0.00 0.00 0.00 45 1011.1
20260506013510 72 205 0.0 2.0 0.00 0.00 0.00 47 1011.2
20260506013010 72 205 0.0 1.0 0.00 0.00 0.00 47 1011.2
20260506012010 72 205 0.0 2.0 0.00 0.00 0.00 47 1011.2
20260506011510 72 205 1.0 2.0 0.00 0.00 0.00 44 1011.1
20260506011009 73 205 0.0 2.0 0.00 0.00 0.00 44 1011.2
20260506010509 73 205 0.0 2.0 0.00 0.00 0.00 44 1011.2
20260506010009 73 205 0.0 3.0 0.00 0.00 0.00 44 1011.2
20260506005509 73 205 0.0 3.0 0.00 0.00 0.00 43 1011.0
20260506004508 73 205 1.0 3.0 0.00 0.00 0.00 42 1011.0
20260506004008 73 205 1.0 4.0 0.00 0.00 0.00 42 1011.1
20260506003508 74 205 1.0 4.0 0.00 0.00 0.00 42 1011.1
20260506003008 74 205 0.0 3.0 0.00 0.00 0.00 42 1011.1
20260506002508 74 205 2.0 3.0 0.00 0.00 0.00 42 1011.1
20260506002008 74 205 1.0 3.0 0.00 0.00 0.00 43 1011.1
20260506001007 75 205 0.0 1.0 0.00 0.00 0.00 44 1011.0
20260506000507 75 205 0.0 1.0 0.00 0.00 0.00 43 1011.0
20260506000007 75 205 0.0 2.0 0.00 0.00 0.00 42 1011.0
20260505235507 76 205 0.0 2.0 0.00 0.00 0.00 42 1011.0
20260505235007 76 205 0.0 3.0 0.00 0.00 0.00 42 1011.0
20260505234506 76 205 0.0 3.0 0.00 0.00 0.00 42 1011.0
20260505234007 76 205 1.0 3.0 0.00 0.00 0.00 41 1010.9
20260505233506 76 205 2.0 2.0 0.00 0.00 0.00 41 1010.9
20260505233006 76 205 1.0 3.0 0.00 0.00 0.00 41 1010.9
20260505232006 76 205 1.0 3.0 0.00 0.00 0.00 42 1010.8
20260505231506 77 205 1.0 2.0 0.00 0.00 0.00 41 1010.8
20260505231006 77 205 1.0 2.0 0.00 0.00 0.00 43 1010.8
20260505230506 77 205 1.0 2.0 0.00 0.00 0.00 43 1010.8
20260505230005 77 205 0.0 3.0 0.00 0.00 0.00 42 1010.8
20260505225005 77 205 1.0 3.0 0.00 0.00 0.00 41 1010.9
20260505223505 76 205 0.0 3.0 0.00 0.00 0.00 40 1010.8
20260505223004 77 205 2.0 2.0 0.00 0.00 0.00 42 1010.8
20260505222504 77 205 1.0 4.0 0.00 0.00 0.00 41 1010.8
20260505222004 77 205 2.0 5.0 0.00 0.00 0.00 39 1010.8
20260505221004 77 214 0.0 3.0 0.00 0.00 0.00 40 1010.5
20260505220504 77 214 0.0 3.0 0.00 0.00 0.00 39 1010.5
20260505220003 77 214 1.0 3.0 0.00 0.00 0.00 38 1010.5
20260505215503 77 207 1.0 3.0 0.00 0.00 0.00 39 1011.0
20260505215003 78 205 1.0 4.0 0.00 0.00 0.00 40 1011.1
20260505214503 78 203 3.0 4.0 0.00 0.00 0.00 38 1011.1
20260505214003 78 182 2.0 4.0 0.00 0.00 0.00 38 1011.1
20260505213503 78 212 2.0 5.0 0.00 0.00 0.00 39 1011.1
20260505213002 78 226 2.0 5.0 0.00 0.00 0.00 39 1011.1
20260505212503 78 240 3.0 5.0 0.00 0.00 0.00 39 1011.1
20260505211502 78 234 0.0 5.0 0.00 0.00 0.00 39 1011.1
20260505211002 78 209 0.0 5.0 0.00 0.00 0.00 40 1011.1
20260505210502 78 222 3.0 4.0 0.00 0.00 0.00 38 1011.1
20260505210002 78 240 2.0 6.0 0.00 0.00 0.00 39 1011.1
20260505205501 77 211 2.0 9.0 0.00 0.00 0.00 37 1011.3
20260505205002 77 203 6.0 9.0 0.00 0.00 0.00 37 1011.3
20260505204501 77 211 2.0 4.0 0.00 0.00 0.00 39 1011.3
20260505203501 77 220 1.0 5.0 0.00 0.00 0.00 40 1011.4
20260505202501 77 212 2.0 4.0 0.00 0.00 0.00 40 1011.7
20260505202001 78 212 1.0 5.0 0.00 0.00 0.00 41 1011.7
20260505201500 77 256 1.0 5.0 0.00 0.00 0.00 41 1011.7
20260505201000 77 198 1.0 4.0 0.00 0.00 0.00 41 1011.8
20260505200500 77 198 0.0 4.0 0.00 0.00 0.00 42 1011.8
20260505200000 76 222 0.0 5.0 0.00 0.00 0.00 42 1011.7
20260505195500 77 206 4.0 5.0 0.00 0.00 0.00 41 1012.2
20260505195000 76 207 1.0 5.0 0.00 0.00 0.00 44 1012.2
20260505194500 76 220 3.0 5.0 0.00 0.00 0.00 41 1012.2
20260505194000 76 232 3.0 4.0 0.00 0.00 0.00 41 1012.3
20260505193029 76 225 1.0 3.0 0.00 0.00 0.00 42 1012.3
20260505192459 76 225 1.0 4.0 0.00 0.00 0.00 42 1012.3
20260505191959 76 232 2.0 4.0 0.00 0.00 0.00 43 1012.3
20260505191459 76 232 2.0 5.0 0.00 0.00 0.00 41 1012.3
20260505190528 75 205 0.0 4.0 0.00 0.00 0.00 43 1012.3
20260505185958 75 204 1.0 6.0 0.00 0.00 0.00 44 1012.3
20260505185458 75 203 2.0 6.0 0.00 0.00 0.00 42 1012.7
20260505184958 75 210 2.0 4.0 0.00 0.00 0.00 44 1012.7
20260505184458 76 9 0.0 4.0 0.00 0.00 0.00 42 1012.7
20260505183958 76 221 3.0 4.0 0.00 0.00 0.00 44 1012.8
20260505183527 76 237 2.0 4.0 0.00 0.00 0.00 44 1012.8
20260505183027 76 257 1.0 4.0 0.00 0.00 0.00 45 1012.8
20260505182457 75 200 2.0 5.0 0.00 0.00 0.00 46 1013.0
20260505181957 75 201 4.0 5.0 0.00 0.00 0.00 43 1013.0
20260505181527 74 236 2.0 4.0 0.00 0.00 0.00 43 1013.0
20260505181027 75 173 3.0 4.0 0.00 0.00 0.00 43 1013.3
20260505180527 75 130 1.0 5.0 0.00 0.00 0.00 45 1013.3
20260505175526 75 234 1.0 6.0 0.00 0.00 0.00 44 1013.3
20260505174526 75 217 4.0 5.0 0.00 0.00 0.00 45 1013.3
20260505174026 75 225 3.0 4.0 0.00 0.00 0.00 46 1013.8
20260505173526 74 269 1.0 4.0 0.00 0.00 0.00 46 1013.8
20260505173026 74 242 1.0 4.0 0.00 0.00 0.00 46 1013.8
20260505172526 74 129 1.0 3.0 0.00 0.00 0.00 47 1013.7
20260505172025 74 227 1.0 4.0 0.00 0.00 0.00 46 1013.7
20260505171525 74 161 1.0 4.0 0.00 0.00 0.00 46 1013.7
20260505171025 74 206 1.0 4.0 0.00 0.00 0.00 45 1013.7
20260505170525 74 207 1.0 4.0 0.00 0.00 0.00 44 1013.7
20260505170025 74 190 1.0 4.0 0.00 0.00 0.00 47 1013.7
20260505165525 74 215 2.0 4.0 0.00 0.00 0.00 47 1013.4
20260505165024 74 223 2.0 4.0 0.00 0.00 0.00 48 1013.5
20260505164024 74 76 1.0 5.0 0.00 0.00 0.00 47 1013.7
20260505163524 74 248 3.0 7.0 0.00 0.00 0.00 49 1013.8
20260505163024 73 237 5.0 7.0 0.00 0.00 0.00 49 1013.7
20260505162524 73 216 1.0 4.0 0.00 0.00 0.00 49 1013.9
20260505162024 73 210 2.0 5.0 0.00 0.00 0.00 48 1013.9
20260505161523 73 221 2.0 5.0 0.00 0.00 0.00 47 1013.9
20260505161023 73 217 2.0 5.0 0.00 0.00 0.00 47 1014.2
20260505160523 72 253 2.0 6.0 0.00 0.00 0.00 48 1014.2
20260505152522 71 229 0.0 0.0 0.00 0.00 0.00 51 1014.0
20260505152022 71 229 0.0 0.0 0.00 0.00 0.00 54 1014.0
20260505151021 69 229 0.0 3.0 0.00 0.00 0.00 62 1014.1
20260505150521 68 229 0.0 3.0 0.00 0.00 0.00 62 1014.1
20260505140519 60 9 2.0 3.0 0.00 0.00 0.00 80 1013.7
20260505125017 53 203 0.0 0.0 0.00 0.00 0.00 92 1013.3
20260505124517 53 203 0.0 0.0 0.00 0.00 0.00 92 1013.3
20260505124017 52 203 0.0 0.0 0.00 0.00 0.00 92 1013.2
20260505122516 52 203 0.0 0.0 0.00 0.00 0.00 92 1013.2
20260505122016 51 203 0.0 0.0 0.00 0.00 0.00 92 1013.1
20260505121516 51 203 0.0 0.0 0.00 0.00 0.00 92 1013.1
20260505121016 51 203 0.0 0.0 0.00 0.00 0.00 92 1013.1
20260505120516 51 203 0.0 0.0 0.00 0.00 0.00 91 1013.1
20260505120016 50 203 0.0 0.0 0.00 0.00 0.00 91 1013.1
20260505115515 50 203 0.0 0.0 0.00 0.00 0.00 91 1013.2
20260505115015 50 203 0.0 0.0 0.00 0.00 0.00 90 1013.2
20260505114515 50 203 0.0 0.0 0.00 0.00 0.00 90 1013.2
20260505114015 50 203 0.0 0.0 0.00 0.00 0.00 90 1012.8
20260505113515 50 203 0.0 0.0 0.00 0.00 0.00 89 1012.8
20260505113015 50 203 0.0 0.0 0.00 0.00 0.00 89 1012.8
20260505112014 50 203 0.0 0.0 0.00 0.00 0.00 89 1012.6
20260505111514 50 203 0.0 0.0 0.00 0.00 0.00 89 1012.6
20260505110514 50 203 0.0 0.0 0.00 0.00 0.00 88 1012.4
20260505102013 50 203 0.0 0.0 0.00 0.00 0.00 87 1012.3
20260505101513 50 203 0.0 0.0 0.00 0.00 0.00 87 1012.3
20260505101012 50 203 0.0 0.0 0.00 0.00 0.00 87 1012.7
20260505100012 51 203 0.0 0.0 0.00 0.00 0.00 87 1012.8
20260505095512 51 203 0.0 0.0 0.00 0.00 0.00 87 1012.7
20260505095012 51 203 0.0 0.0 0.00 0.00 0.00 87 1012.7
20260505094512 51 203 0.0 0.0 0.00 0.00 0.00 87 1012.7
20260505094011 51 203 0.0 0.0 0.00 0.00 0.00 86 1012.4
20260505093511 51 203 0.0 0.0 0.00 0.00 0.00 86 1012.4
20260505093011 51 203 0.0 0.0 0.00 0.00 0.00 86 1012.4
20260505092511 51 203 0.0 1.0 0.00 0.00 0.00 86 1012.7
20260505092011 51 203 0.0 1.0 0.00 0.00 0.00 86 1012.7
20260505091011 51 203 0.0 0.0 0.00 0.00 0.00 86 1012.9
20260505090510 51 203 0.0 1.0 0.00 0.00 0.00 85 1012.9
20260505090010 51 203 0.0 1.0 0.00 0.00 0.00 85 1012.9
20260505084510 52 203 0.0 0.0 0.00 0.00 0.00 85 1012.9
20260505084010 52 203 0.0 0.0 0.00 0.00 0.00 85 1012.8
20260505083510 52 203 0.0 0.0 0.00 0.00 0.00 85 1012.8
20260505083009 52 203 0.0 0.0 0.00 0.00 0.00 85 1012.8
20260505082009 52 203 0.0 0.0 0.00 0.00 0.00 84 1012.9
20260505081509 52 203 0.0 1.0 0.00 0.00 0.00 84 1012.9
20260505081009 52 203 0.0 1.0 0.00 0.00 0.00 84 1012.9
20260505080009 52 203 0.0 1.0 0.00 0.00 0.00 84 1012.9
20260505075508 52 203 0.0 1.0 0.00 0.00 0.00 83 1012.7
20260505075008 53 203 0.0 1.0 0.00 0.00 0.00 83 1012.8
20260505074508 53 203 0.0 1.0 0.00 0.00 0.00 83 1012.8
20260505074008 53 203 0.0 0.0 0.00 0.00 0.00 82 1012.9
20260505073508 53 203 0.0 0.0 0.00 0.00 0.00 82 1012.9
20260505073008 53 203 0.0 0.0 0.00 0.00 0.00 82 1012.9
20260505072507 53 203 0.0 0.0 0.00 0.00 0.00 81 1013.0
20260505072007 53 203 0.0 0.0 0.00 0.00 0.00 81 1013.0
20260505071007 53 203 0.0 1.0 0.00 0.00 0.00 81 1013.0
20260505070507 54 203 0.0 1.0 0.00 0.00 0.00 81 1013.0
20260505070007 54 203 0.0 0.0 0.00 0.00 0.00 80 1013.0
20260505065506 54 203 0.0 0.0 0.00 0.00 0.00 80 1013.0
20260505065007 54 203 0.0 0.0 0.00 0.00 0.00 80 1013.0
20260505064506 54 203 0.0 0.0 0.00 0.00 0.00 80 1013.0
20260505064006 54 203 0.0 0.0 0.00 0.00 0.00 80 1013.0
20260505063506 54 203 0.0 0.0 0.00 0.00 0.00 79 1013.0
20260505063006 54 203 0.0 1.0 0.00 0.00 0.00 79 1013.0
20260505062505 55 203 0.0 1.0 0.00 0.00 0.00 79 1013.0
20260505062005 55 203 0.0 0.0 0.00 0.00 0.00 79 1013.0
20260505061505 55 203 0.0 0.0 0.00 0.00 0.00 79 1013.0
20260505061005 55 203 0.0 0.0 0.00 0.00 0.00 78 1013.0
20260505060005 55 203 0.0 0.0 0.00 0.00 0.00 76 1013.0
20260505055505 55 203 0.0 0.0 0.00 0.00 0.00 76 1013.1
20260505055005 55 203 0.0 0.0 0.00 0.00 0.00 76 1013.1
20260505054505 56 203 0.0 0.0 0.00 0.00 0.00 76 1013.1
20260505054005 56 203 0.0 0.0 0.00 0.00 0.00 75 1013.1
20260505053504 56 203 0.0 0.0 0.00 0.00 0.00 75 1013.1
20260505053004 56 203 0.0 0.0 0.00 0.00 0.00 75 1013.1
20260505052504 56 203 0.0 0.0 0.00 0.00 0.00 75 1013.1
20260505052003 56 203 0.0 1.0 0.00 0.00 0.00 75 1013.1
20260505051504 56 203 0.0 1.0 0.00 0.00 0.00 74 1013.1
20260505051003 56 203 0.0 0.0 0.00 0.00 0.00 73 1013.0
20260505050503 57 203 0.0 0.0 0.00 0.00 0.00 73 1013.0